Hourly Data Report for May 17, 2012

All times are specified in Local Standard Time (LST). Add 1 hour to adjust for Daylight Saving Time where and when it is observed.

LONDON A
ONTARIO

43°01'59.000" N
81°09'04.000" W
278.00 m
6144473
71623
YXU

Download Data

Hourly Data (May 2012)
Hourly Data Report for May 17, 2012
Temp Definition
°C
Dew Point Temp Definition
°C
Rel Hum Definition
%
Wind Dir Definition
10's deg

Wind Spd Definition
km/h
Visibility Definition
km
Stn Press Definition
kPa
Hmdx Definition


Wind Chill Definition


Weather Definition


TIME
00:00 Legend Double Dagger 3.1 0.2 81 24 6 10.0 98.76     LegendNANA
01:00 Legend Double Dagger 2.7 0.4 85 26 5 10.0 98.75     Clear
02:00 Legend Double Dagger 2.3 -0.5 82 24 6 10.0 98.75     LegendNANA
03:00 Legend Double Dagger 2.3 0.4 87 26 5 10.0 98.76     LegendNANA
04:00 Legend Double Dagger 2.9 0.8 86 31 6 10.0 98.81     Mainly Clear
05:00 Legend Double Dagger 2.8 -0.1 81 33 8 10.0 98.86     LegendNANA
06:00 Legend Double Dagger 4.7 1.0 77 31 6 10.0 98.95     LegendNANA
07:00 Legend Double Dagger 7.3 3.4 76 32 6 10.0 99.03     Mainly Clear
08:00 Legend Double Dagger 9.8 1.7 57 29 13 10.0 99.07     LegendNANA
09:00 Legend Double Dagger 11.1 2.5 55 33 7 10.0 99.09     LegendNANA
10:00 Legend Double Dagger 12.1 1.8 49 33 8 10.0 99.05     Mainly Clear
11:00 Legend Double Dagger 13.4 2.1 46 34 9 10.0 99.03     LegendNANA
12:00 Legend Double Dagger 14.3 1.3 41 31 11 10.0 98.98     LegendNANA
13:00 Legend Double Dagger 15.3 3.8 46 8 4 10.0 98.95     Mainly Clear
14:00 Legend Double Dagger 16.0 2.9 41 2 5 10.0 98.91     LegendNANA
15:00 Legend Double Dagger 16.7 3.1 40 36 4 10.0 98.88     LegendNANA
16:00 Legend Double Dagger 17.1 2.8 38 34 9 10.0 98.86     Mainly Clear
17:00 Legend Double Dagger 16.9 3.0 39 33 12 10.0 98.84     LegendNANA
18:00 Legend Double Dagger 15.9 2.8 41 30 11 10.0 98.83     LegendNANA
19:00 Legend Double Dagger 14.5 1.1 40 29 7 10.0 98.83     Mainly Clear
20:00 Legend Double Dagger 11.4 4.7 63 18 15 10.0 98.84     LegendNANA
21:00 Legend Double Dagger 9.5 3.9 68 19 9 10.0 98.88     LegendNANA
22:00 Legend Double Dagger 7.7 3.9 77   0 10.0 98.91     Mainly Clear
23:00 Legend Double Dagger 4.4 2.9 90   0 10.0 98.91     LegendNANA

Notes on Data Quality.

Legend

  • E = Estimated
  • M = Missing
  • NA = Not Available
  • ‡ = Partner data that is not subject to review by the National Climate Archives
Date modified: